Simultaneous Nadir Overpasses (SNOs) Predictions

Prediction of SNOs between AQUA and METOP-B Satellite Orbit:

Table of predicted SNOs for the next 14.0 days since TLE Epoch: 6/13/2014
Index Date (AQUA) Time (AQUA) Lat,Lon (AQUA) SZA (AQUA ) Date (METOP-B) Time (METOP-B) Lat,Lon (METOP-B) SZA (METOP-B ) Distance(km) Time Diff (sec)
1 06/15/2014 06:46:01 73.77, 72.95 50.47 06/15/2014 06:45:36 73.76, 72.93 50.46 1.65 25
2 06/15/2014 07:35:28 -73.86,-119.59 129.45 06/15/2014 07:36:15 -73.86,-119.50 129.45 2.63 47
3 06/18/2014 01:30:36 -73.22, -27.08 130.20 06/18/2014 01:29:28 -73.18, -29.31 130.16 71.93 68
4 06/18/2014 02:20:14 73.77, 139.41 50.38 06/18/2014 02:19:57 73.75, 139.32 50.37 3.50 17
5 06/18/2014 03:09:41 -73.85, -53.12 129.54 06/18/2014 03:10:36 -73.85, -53.11 129.54 0.71 55
6 06/20/2014 21:04:54 -73.50, 38.78 129.94 06/20/2014 21:03:43 -73.47, 37.74 129.93 33.31 71
7 06/20/2014 21:54:27 73.79,-154.20 50.37 06/20/2014 21:54:17 73.78,-154.19 50.37 1.19 10
8 06/20/2014 22:43:54 -73.87, 13.28 129.55 06/20/2014 22:44:57 -73.84, 13.27 129.59 3.03 63
9 06/23/2014 16:39:09 -73.71, 104.79 129.70 06/23/2014 16:37:58 -73.70, 104.68 129.70 3.76 71
10 06/23/2014 17:28:38 73.80, -87.76 50.40 06/23/2014 17:28:36 73.81, -87.72 50.41 2.13 2
11 06/23/2014 18:18:05 -73.86, 79.73 129.53 06/23/2014 18:19:16 -73.87, 79.76 129.53 1.16 71
12 06/26/2014 12:13:21 -73.73, 171.19 129.60 06/26/2014 12:12:18 -73.72, 171.15 129.59 1.62 63
13 06/26/2014 13:02:50 73.83, -21.37 50.51 06/26/2014 13:02:56 73.83, -21.26 50.51 3.72 6




NCC Satellite Simultaneous Nadir Overpasses (SNOs) Prediction Service
